User: anonymous   Login
Location: Unspecified
(0.0000°N, 0.0000°E)
Time: 12:06:30
(UTC+00:00)
Language:

Vanguard 3 - Orbit

View from above orbital plane
View from above orbital plane
View from above satellite
View from above satellite

Ground track
Ground track

The orbit data is extracted from the following two-line orbital elements,

1 00020U 59007A   14324.17414158  .00001048  00000-0  41247-3 0  6247
2 00020 033.3533 231.9254 1674979 271.4063 069.6116 11.54143026995072
Epoch (UTC): 20 November 2014 04:10:45
Eccentricity: 0.1674979
inclination: 33.3533°
perigee height: 507 km
apogee height: 3278 km
right ascension of ascending node: 231.9254°
argument of perigee: 271.4063°
revolutions per day: 11.54143026
mean anomaly at epoch: 69.6116°
orbit number at epoch: 99507

The dashed part of the orbit path shows where the satellite is in the earth's shadow,  

DLR